Regional Weather Roundup
Issued by NWS

Home | Current Version | Previous Version | Text Only | Print | Product List | Glossary On
Versions: 1 2 3 4 5 6 7 8 9 10 11 12 13 14 15 16 17 18 19 20 21 22 23 24 25 26 27 28 29 30 31 32 33 34 35 36 37 38 39 40 41 42 43 44 45 46 47 48 49
000
ASUS45 KBOU 180207
RWRCO

WEATHER ROUNDUP FOR COLORADO
NATIONAL WEATHER SERVICE DENVER/BOULDER CO
700 PM MST WED DEC 17 2014

NOTE: "FAIR" INDICATES FEW OR NO CLOUDS BELOW 12000 FEET WITH NO
SIGNIFICANT WEATHER AND/OR OBSTRUCTIONS TO VISIBILITY.

COZ001>005-013-030-031-180300-
...NORTHWEST COLORADO...

CITY           SKY/WX    TMP DP  RH WIND       PRES   REMARKS
CRAIG          CLOUDY    28  26  92 W3        30.01R
HAYDEN         CLOUDY    27  23  86 S3        29.99R VSB 3/4
MEEKER         CLOUDY    25  23  92 CALM      30.00R
MOUNT WERNER   NOT AVBL
STEAMBOAT SPGS CLOUDY    27  27  99 CALM      29.98S
WALDEN         PTCLDY    19  18  93 NW5       29.97R WCI  13
$$

COZ006>008-011-180300-
...WEST CENTRAL VALLEYS...

CITY           SKY/WX    TMP DP  RH WIND       PRES   REMARKS
GRAND JUNCTION CLOUDY    35  35 100 NW3       30.00R FOG
MONTROSE       CLOUDY    35  33  92 MISG      30.01R
EAGLE          FLURRIES  27  25  93 CALM      30.01R
RIFLE          CLOUDY    34  32  92 CALM      29.99R
DELTA          CLOUDY    37  36  93 S7        30.00R
NUCLA          MIX PCPN  34  34 100 CALM      30.04R
$$

COZ017>023-064>068-180300-
...SOUTHWEST COLORADO...

CITY           SKY/WX    TMP DP  RH WIND       PRES   REMARKS
DURANGO        CLOUDY    32  31  96 SW5       30.00R WCI  27
CORTEZ         CLOUDY    34  32  92 W9        30.03R WCI  27
PAGOSA SPRINGS LGT SNOW  32  31  99 CALM      30.00R
TELLURIDE      LGT SNOW  27  27  99 SW6       29.99R VSB 3/4 WCI  20
WOLF CREEK PAS SNOW      14  14 100 MISG      29.98R VSB 1/2
$$

COZ009-010-012-014-032>034-037-058>063-180300-
...CENTRAL COLORADO...

CITY           SKY/WX    TMP DP  RH WIND       PRES   REMARKS
ASPEN          LGT SNOW  29  27  92 CALM      29.96R FOG
BUENA VISTA    CLOUDY    29  20  70 NW5       29.95R WCI  24
COPPER MTN     LGT SNOW  21  14  73 W15       29.96S WCI   8
BERTHOUD PASS  CLOUDY    12   7  79 MISG      29.96R
COTTONWOOD PAS CLOUDY    28  23  80 CALM      29.96R
GUNNISON       CLOUDY    27  19  74 CALM      30.01R
KREMMLING      FLURRIES  23  19  86 CALM      30.00R
LEADVILLE      FLURRIES  20  17  88 N6        29.94R WCI  12
MONARCH PASS   FOG       16  12  86 MISG      30.05R VSB<1/4
SALIDA         CLOUDY    33  24  68 SW3       30.02R
SUNLIGHT       LGT SNOW N/A N/A N/A CALM      30.00R VSB 3/4
WILKERSON PASS LGT SNOW  19  18  93 CALM      29.98R
$$

COZ069>075-180300-
...SAN LUIS VALLEY/SANGRE DE CRISTO MOUNTAINS...

CITY           SKY/WX    TMP DP  RH WIND       PRES   REMARKS
ALAMOSA        LGT SNOW  26  23  88 E3        29.99R FOG
LA VETA PASS   CLOUDY    21  19  93 SW6       29.94R FOG     WCI  14
SAGUACHE       MOCLDY    27  23  86 NE3       29.99R
$$

COZ035-036-038>040-180300-
...NORTHERN COLORADO FRONT RANGE...

CITY           SKY/WX    TMP DP  RH WIND       PRES   REMARKS
DENVER INTL AP CLOUDY    32  27  81 W5        29.94R WCI  27
DMNS CITY PARK   N/A     35  25  69 N3        29.94S
AURORA         CLOUDY    34  28  80 W2        29.95R
FRONT RANGE AP NOT AVBL
ERIE MUNI ARPT   N/A     31  26  81 CALM      29.95R
BOULDER MUN AP CLOUDY    32  27  80 CALM      29.95R
CENTENNIAL     CLOUDY    36  26  67 NW6       29.94R
BROOMFIELD     MOCLDY    36  27  69 MISG      29.95R
FORT COLLINS   PTCLDY    28  19  69 E6        29.97R WCI  22
LONGMONT       CLOUDY    32  26  78 CALM      29.98R
$$

COZ041-046-047-076>085-087-088-180300-
...PIKES PEAK/PALMER DIVIDE AND SOUTHERN FOOTHILLS...

CITY           SKY/WX    TMP DP  RH WIND       PRES   REMARKS
COLO. SPRINGS  CLOUDY    35  32  88 N5        29.95R WCI  31
A. F. ACADEMY  MOCLDY    31  31  99 N6        29.94R WCI  25
ELLICOTT       NOT AVBL
FALCON         CLOUDY    32  26  78 N3        29.95R
FORT CARSON    CLOUDY    32  28  86 E8        29.94R WCI  25
LIMON          CLOUDY    25  22  88 SE9       29.96R WCI  15
MONUMENT HILL  CLOUDY    30  30 100 W5        29.94R WCI  25
TRINIDAD       PTCLDY    29  22  75 CALM      29.95R
$$

COZ042>045-048>051-090-091-180300-
...NORTHEAST COLORADO...

CITY           SKY/WX    TMP DP  RH WIND       PRES   REMARKS
GREELEY ARPT   MOCLDY    27  18  69 CALM      29.97R
AKRON          CLOUDY    22  21  96 SE9       29.97R FOG     WCI  12
BURLINGTON     FOG       25  23  92 E7        30.01R VSB 1/2 WCI  17
WRAY           FOG      N/A N/A N/A E5        30.05R VSB 1/4
STERLING       CLOUDY    28  27  93 CALM      30.00S
HOLYOKE        NOT AVBL
FORT MORGAN    CLOUDY    19  17  89 N7        29.99R WCI  10
$$

COZ086-089-092>099-180300-
...SOUTHEAST COLORADO...

CITY           SKY/WX    TMP DP  RH WIND       PRES   REMARKS
PUEBLO         MOCLDY    26  20  77 E8        29.98R WCI  18
LA JUNTA       CLOUDY    28  24  85 E3        30.00R
LAMAR          CLOUDY    30  27  88 NE7       30.00R WCI  23
SPRINGFIELD      N/A     25  24  96 NW8       29.98R WCI  16
$$


USA.gov is the U.S. government's official web portal to all federal, state and local government web resources and services.